COSMOS 2251 DEB, 34564

Orbit data source: Space-Track

COSMOS 2251 DEB, 34564 is space debris in LEO originally from a launch on Wed, 16 Jun 1993 UTC launched from the Plesetsk Missile And Space Complex (PKMTR). The debris from Iridium 33, an American commercial communications satellite, has been tracked extensively since its accidental collision with the defunct Russian satellite Cosmos 2251 in 2009. This event, occurring at high speed in low Earth orbit (LEO), generated thousands of pieces of space debris, significantly increasing the risk of further collisions. The Iridium 33 debris cloud has impacted space traffic management and orbital debris mitigation strategies, making it a subject of ongoing study in space situational awareness.

Loading next visibility...
Identifier
34564, 1993-036VA
Orbit
LEO
Country
Flag of CISCIS
Related business
Manufacturer
Unknown
Mission
Spacecraft
Bus & Motor
Unknown
Mass
Unknown
Launch date (UTC)
1993-06-16 (33 years ago)
Launch vehicle
Unknown
Launch site
Plesetsk Missile And Space Complex (PKMTR)
Object type
Payload
Rocket body
Debris
Shape & HBR
Unknown shape, 0.1 m
Radar Cross Section
Small (<0.1 m²)

Expand to show TLE details & history
Last TLE update: 4 hours ago

TLE from 4 hours ago
0 COSMOS 2251 DEB
1 34564U 93036VA  26037.61680647  .00001110  00000-0  35404-3 0  9991
2 34564  74.0332 134.6256 0019840 232.1254 192.5147 14.40811825888110
Epoch: 2026-02-06T14:48Z
TLE epoch observation values (Epoch: 2026-02-06T14:48:12.079Z)
Latitude
60.38063°
Longitude
165.86188°
Altitude
779.57 km
Speed
7.463 km/s
True Right ascension
10h 58m 39s
True Declination
60° 13' 59"
Sunlit
Object was in full shadow at epoch
Visualization orbit readout
Latitude
Unknown
Longitude
Unknown
Altitude
Unknown
Speed
Unknown
Apparent Right ascension
Unknown
Apparent Declination
Unknown
Sunlit
N/A
Visualization observer readout
Local Sidereal Time
21:17:44
Azimuth
Unknown
Elevation
Unknown
Doppler factor
Unknown
Orbital elements
Apogee altitude
767.585 km
Perigee altitude
739.287 km
Semi-major axis
7,131.573 km
Eccentricity
0.00198
Inclination
74.0332°
RAAN
134.6256°
Arg. of periapsis
232.1254°
True anomaly
192.46555°
Mean anomaly
192.5147°
Eccentric anomaly
192.49012°
Mean motion
3.60384 °/min
Orbital period
99.89 mins
BSTAR
0.00035404
Loading maneuver chart data...
Computing Atmospheric mass density...

Documentation

Showing up to 5 results
|